Le nostre stazioni meteo in Italia

Pubblicità
Il mio iltempo24.it
Reggio Calabria, Italia (16422): Temperatura & dewpoint: 15.01.2020 03:00:00 - 21.01.2020 03:00:00 (CET)Reggio Calabria, Italia (16422): velocità del vento: 15.01.2020 03:00:00 - 21.01.2020 03:00:00 (CET)Reggio Calabria, Italia (16422): direzione del vento: 15.01.2020 03:00:00 - 21.01.2020 03:00:00 (CET)Reggio Calabria, Italia (16422): reduced air pressure: 15.01.2020 03:00:00 - 21.01.2020 03:00:00 (CET)Reggio Calabria, Italia (16422): visibility: 15.01.2020 03:00:00 - 21.01.2020 03:00:00 (CET)
Data & Tempo tt [°C] td [°C] ff [km/h] ff [kn] dd ppp [hPa] vv [km]
21.01.2020 03:00:00 - - - - - - -
21.01.2020 02:00:00 - - - - - - -
21.01.2020 01:00:00 15,2 4,4 21 11 ESE 1034,3 -
21.01.2020 00:00:00 13,0 4,0 4 2 - - 10
20.01.2020 23:00:00 13,0 4,0 9 5 ESE - 10
20.01.2020 22:00:00 12,7 4,6 11 6 SE 1034,6 10
20.01.2020 21:00:00 13,0 5,0 11 6 SSE - 10
20.01.2020 20:00:00 14,0 5,0 11 6 ESE - 10
20.01.2020 19:00:00 14,5 5,8 13 7 S 1032,9 10
20.01.2020 18:00:00 15,0 5,0 13 7 ESE - 10
20.01.2020 17:00:00 16,0 4,0 9 5 ENE - 10
20.01.2020 16:00:00 16,1 4,2 16 9 ESE 1030,8 10
20.01.2020 15:00:00 16,0 5,0 18 10 ESE - 10
20.01.2020 14:00:00 16,0 6,0 18 10 S - 10
20.01.2020 13:00:00 17,4 4,6 26 14 ESE 1030,5 10
20.01.2020 12:00:00 16,0 5,0 26 14 E - 10
20.01.2020 11:00:00 15,0 6,0 34 18 ESE - 10
20.01.2020 10:00:00 16,1 5,5 31 17 ESE 1030,3 10
20.01.2020 09:00:00 16,0 5,0 5 3 - - 10
20.01.2020 08:00:00 13,0 5,0 4 2 - - 10
20.01.2020 07:00:00 12,9 5,1 13 7 OSO 1028,5 10
20.01.2020 06:00:00 11,0 5,0 4 2 - - 10
20.01.2020 05:00:00 - - - - - - -
20.01.2020 04:00:00 11,7 5,2 8 4 NNE 1027,0 -
20.01.2020 03:00:00 - - - - - - -
20.01.2020 02:00:00 - - - - - - -
20.01.2020 01:00:00 12,8 6,3 15 8 SO 1026,3 -
20.01.2020 00:00:00 13,0 7,0 11 6 SE - 10
19.01.2020 23:00:00 12,0 8,0 11 6 S - 10
19.01.2020 22:00:00 9,8 5,9 9 5 SE 1025,8 10
19.01.2020 21:00:00 11,0 6,0 5 3 - - 10
19.01.2020 20:00:00 8,0 4,0 8 4 NE - 10
19.01.2020 19:00:00 9,9 5,2 5 3 E 1024,8 10
19.01.2020 18:00:00 12,0 5,0 4 2 - - 10
19.01.2020 17:00:00 13,0 5,0 11 6 N - 10
19.01.2020 16:00:00 15,0 4,7 13 7 N 1022,1 10
19.01.2020 15:00:00 16,0 4,0 15 8 NNO - 10
19.01.2020 14:00:00 16,0 3,0 15 8 NNO - 10
19.01.2020 13:00:00 16,3 3,5 13 7 NNO 1021,9 10
19.01.2020 12:00:00 16,0 5,0 16 9 NNO - 10
19.01.2020 11:00:00 14,0 5,0 18 10 N - 10
19.01.2020 10:00:00 14,6 6,2 15 8 N 1022,8 10
19.01.2020 09:00:00 13,0 7,0 11 6 NNE - 10
19.01.2020 08:00:00 12,0 7,0 16 9 NNE - 10
19.01.2020 07:00:00 11,8 6,6 16 9 N 1021,7 10
19.01.2020 06:00:00 12,0 7,0 15 8 NE - 10
19.01.2020 05:00:00 - - - - - - -
19.01.2020 04:00:00 11,7 7,0 18 10 N 1021,8 -
19.01.2020 03:00:00 - - - - - - -
19.01.2020 02:00:00 - - - - - - -
19.01.2020 01:00:00 12,2 5,5 15 8 N 1022,2 -
19.01.2020 00:00:00 13,0 5,0 16 9 NNO - 10
18.01.2020 23:00:00 13,0 6,0 16 9 NNO - 10
18.01.2020 22:00:00 12,6 5,4 15 8 N 1022,7 10
18.01.2020 21:00:00 12,0 6,0 13 7 NNO - 10
18.01.2020 20:00:00 12,0 8,0 15 8 N - 10
18.01.2020 19:00:00 11,6 8,9 16 9 N 1023,4 10
18.01.2020 18:00:00 13,0 6,0 21 11 NNE - 10
18.01.2020 17:00:00 13,0 9,0 22 12 N - 10
18.01.2020 16:00:00 15,5 7,1 15 8 NO 1022,4 10
18.01.2020 15:00:00 16,0 7,0 16 9 N - 10
18.01.2020 14:00:00 16,0 5,0 15 8 NNO - 10
18.01.2020 13:00:00 16,8 6,6 15 8 NNO 1023,3 10
18.01.2020 12:00:00 15,0 8,0 15 8 N - 10
18.01.2020 11:00:00 16,0 8,0 15 8 N - 10
18.01.2020 10:00:00 14,2 8,0 13 7 NNE 1025,4 10
18.01.2020 09:00:00 14,0 8,0 9 5 N - 10
18.01.2020 08:00:00 13,0 8,0 11 6 N - 10
18.01.2020 07:00:00 13,3 7,1 15 8 N 1025,3 10
18.01.2020 06:00:00 13,0 7,0 13 7 NNO - 10
18.01.2020 05:00:00 - - - - - - -
18.01.2020 04:00:00 13,4 6,1 11 6 N 1025,3 -
18.01.2020 03:00:00 - - - - - - -
18.01.2020 02:00:00 - - - - - - -
18.01.2020 01:00:00 13,9 4,2 18 10 N 1025,6 -
18.01.2020 00:00:00 14,0 4,0 21 11 NNO - 10
17.01.2020 23:00:00 14,0 5,0 13 7 NNE - 10
17.01.2020 22:00:00 13,6 4,8 13 7 N 1026,4 10
17.01.2020 21:00:00 13,0 5,0 15 8 N - 10
17.01.2020 20:00:00 13,0 5,0 15 8 N - 10
17.01.2020 19:00:00 13,8 4,6 18 10 NNO 1026,3 10
17.01.2020 18:00:00 14,0 5,0 18 10 NNO - 10
17.01.2020 17:00:00 14,0 5,0 21 11 NNO - 10
17.01.2020 16:00:00 14,2 5,6 24 13 NNO 1025,6 10
17.01.2020 15:00:00 14,0 6,0 24 13 N - 10
17.01.2020 14:00:00 15,0 6,0 24 13 NNO - 10
17.01.2020 13:00:00 15,1 5,7 24 13 NNO 1026,0 10
17.01.2020 12:00:00 15,0 5,0 22 12 N - 10
17.01.2020 11:00:00 15,0 6,0 21 11 N - 10
17.01.2020 10:00:00 14,9 5,1 24 13 N 1027,0 10
17.01.2020 09:00:00 14,0 5,0 21 11 NNE - 10
17.01.2020 08:00:00 14,0 5,0 21 11 N - 10
17.01.2020 07:00:00 13,3 4,5 21 11 NNE 1026,6 10
17.01.2020 06:00:00 13,0 5,0 22 12 N - 10
17.01.2020 05:00:00 - - - - - - -
17.01.2020 04:00:00 13,5 5,0 22 12 N 1026,6 -
17.01.2020 03:00:00 - - - - - - -
17.01.2020 02:00:00 - - - - - - -
17.01.2020 01:00:00 12,6 4,8 16 9 N 1027,1 -
17.01.2020 00:00:00 13,0 5,0 21 11 NNE - 10
16.01.2020 23:00:00 13,0 5,0 21 11 N - 10
16.01.2020 22:00:00 13,3 5,4 21 11 N 1027,5 10
16.01.2020 21:00:00 13,0 5,0 22 12 NNE - 10
16.01.2020 20:00:00 13,0 6,0 22 12 NNE - 10
16.01.2020 19:00:00 12,9 6,7 18 10 N 1027,5 10
16.01.2020 18:00:00 13,0 7,0 22 12 N - 10
16.01.2020 17:00:00 14,0 7,0 28 15 N - 10
16.01.2020 16:00:00 14,9 6,2 24 13 N 1026,8 10
16.01.2020 15:00:00 16,0 8,0 28 15 N - 10
16.01.2020 14:00:00 16,0 8,0 29 16 N - 10
16.01.2020 13:00:00 15,5 7,0 29 16 N 1027,5 10
16.01.2020 12:00:00 16,0 7,0 28 15 N - 10
16.01.2020 11:00:00 15,0 8,0 24 13 N - 10
16.01.2020 10:00:00 15,6 8,1 21 11 N 1029,2 10
16.01.2020 09:00:00 14,0 7,0 15 8 NNE - 10
16.01.2020 08:00:00 12,0 7,0 15 8 NNE - 10
16.01.2020 07:00:00 12,5 7,1 15 8 N 1028,2 10
16.01.2020 06:00:00 13,0 9,0 16 9 N - 10
16.01.2020 05:00:00 13,0 8,0 18 10 N - 10
16.01.2020 04:00:00 12,7 7,8 16 9 N 1028,2 10
16.01.2020 03:00:00 13,0 7,0 16 9 N - 10
16.01.2020 02:00:00 12,0 7,0 13 7 N - 10
16.01.2020 01:00:00 9,9 5,7 8 4 NE 1028,5 10
16.01.2020 00:00:00 12,0 8,0 13 7 N - 10
15.01.2020 23:00:00 12,0 8,0 15 8 N - 10
15.01.2020 22:00:00 9,9 6,6 11 6 NNE 1029,0 10
15.01.2020 21:00:00 11,0 7,0 13 7 N - 10
15.01.2020 20:00:00 9,0 6,0 8 4 ENE - 10
15.01.2020 19:00:00 9,6 6,1 9 5 ENE 1028,8 10
15.01.2020 18:00:00 12,0 8,0 15 8 N - 10
15.01.2020 17:00:00 13,0 8,0 21 11 NNO - 10
15.01.2020 16:00:00 13,9 8,3 21 11 NNO 1027,6 10
15.01.2020 15:00:00 15,0 9,0 24 13 N - 10
15.01.2020 14:00:00 15,0 8,0 22 12 N - 10
15.01.2020 13:00:00 15,5 8,2 21 11 N 1027,3 10
15.01.2020 12:00:00 15,0 8,0 16 9 NNO - 10
15.01.2020 11:00:00 15,0 8,0 16 9 NNO - 10
15.01.2020 10:00:00 14,0 7,0 11 6 NNO - 10
15.01.2020 09:00:00 11,0 5,0 8 4 NE - 10
15.01.2020 08:00:00 7,0 3,0 11 6 NE - 10
15.01.2020 07:00:00 6,7 2,9 8 4 NE 1028,0 10
15.01.2020 06:00:00 7,0 3,0 13 7 NE - 10
15.01.2020 05:00:00 - - - - - - -
15.01.2020 04:00:00 6,4 2,7 11 6 NE 1027,2 -
15.01.2020 03:00:00 - - - - - - -

tt = Temperatura
td = dewpoint
ff = velocità del vento
dd = direzione del vento
ppp = reduced air pressure
vv = visibility

Stazioni seguenti

WeatherPro
AMSI
MeteoEarth